EUTELSAT 117 WEST A

Last updated on Wed Sep 09 2026 00:03:00 GMT+0000 (Coordinated Universal Time)

1 39122U 13012A 26251.50548751 -.00000034 00000+0 00000+0 0 9991 2 39122 0.0504 296.3472 0002803 236.2543 240.1428 1.00271478 49261
UTC large
Height (km)
Speed (km/s)
/
Latitude / Longitude
Inclination (degrees)
Orbital Period (minutes)
Azimuth
Elevation
Range (km)
Doppler Factor

Next 0 passes for location: London (51.5072 / 0.1276)

No passes found over London.
EUTELSAT 117 WEST A